GPS BIIR-11 (PRN 19)

Last updated on July 6, 2021, 3:39 p.m. UTC

1 28190U 04009A   21186.78383159 -.00000090  00000-0  00000-0 0  9995
2 28190  56.1772 347.6975 0090730 108.1478  70.3160  2.00568124126698
UTC
Height (km)
Latitude
Longitude
Inclination
Orbital Period
UTC large
Height (km)
Speed (km/s)
/
Latitude / Longitude
Inclination (degrees)
Orbital Period (minutes)
Azimuth
Elevation
Range (km)
Doppler Factor
iOS Compass Heading
iOS Angle

Next 30 passes for location: Hong Kong

Rise time Rise Azimuth (degrees) Set time Set Azimuth (degrees) Duration Max altitude (degrees)

No matching passes for this satellites